RH
65 64 65 61 56 56 56 56 58 59 57 54 54 55 51 45 40 36 33 30 27 25 23 23 22 23 24 26 26 25 20 16 15 13 12 12 11 10 10 10 14 19
69 66 67 66 61 58 56 55 59 60 58 58 57 54 48 41 37 35 34 33 30 28 26 27 27 26 25 24 23 24 21 20 20 19 16 15 14 12 11 11 13 18
71 69 69 69 65 59 55 56 60 62 61 61 58 51 45 40 38 38 39 37 34 32 31 31 31 31 30 28 28 27 24 23 22 20 17 17 17 15 14 15 17 20
72 71 70 71 66 60 56 56 60 60 58 57 54 50 47 44 42 42 42 41 39 38 37 36 35 36 35 34 35 32 29 27 25 24 21 18 17 16 16 17 18 21
74 72 71 72 66 59 56 54 55 56 54 52 52 51 50 48 46 46 44 44 45 43 41 40 39 39 39 40 41 37 35 33 29 27 26 24 22 22 20 20 19 20
79 74 71 70 65 59 59 56 54 54 53 52 51 52 52 51 51 49 46 46 47 46 45 44 43 44 46 48 50 49 48 44 39 37 35 32 30 29 30 29 28 28
82 77 73 71 67 65 64 59 55 54 52 51 51 52 54 54 54 51 48 48 50 51 51 51 49 50 52 56 58 59 58 55 53 52 49 45 41 39 40 39 38 37
85 80 75 72 72 71 67 59 54 52 51 51 53 53 53 55 54 51 51 53 56 58 59 58 56 54 56 61 64 64 63 64 64 64 61 58 56 55 53 50 47 47
84 81 76 73 72 71 66 57 52 52 51 52 54 52 51 53 54 53 55 58 60 62 61 60 60 59 59 63 66 68 70 70 69 69 67 66 66 64 63 60 58 57
79 78 77 73 68 66 65 58 52 52 52 52 53 52 48 50 53 55 59 60 60 61 61 61 62 63 63 64 66 70 73 73 73 73 72 72 72 72 71 70 68 66
71 73 75 71 66 65 65 59 50 47 49 50 51 51 50 51 55 59 60 59 59 57 59 63 64 63 64 65 66 69 72 73 73 73 74 74 75 76 76 76 74 72
64 68 71 69 66 65 62 60 54 48 48 51 49 48 51 55 57 59 60 59 58 57 59 62 62 62 64 65 67 70 71 71 71 72 75 74 72 73 75 75 75 75
65 67 68 66 65 66 63 62 61 56 54 55 50 46 49 54 56 58 60 59 59 62 65 62 57 58 62 64 67 68 67 68 68 69 71 71 68 69 71 72 74 74
68 70 70 65 62 64 63 60 59 59 58 58 52 46 47 49 52 56 57 58 63 67 66 60 57 60 62 63 67 67 63 62 64 67 70 69 69 70 67 66 69 70
69 70 69 64 59 60 62 60 59 60 62 62 57 50 48 47 49 53 54 56 61 62 61 58 59 64 65 64 65 61 58 61 66 69 73 73 72 72 67 62 62 63
63 61 62 63 61 61 63 63 63 63 65 65 60 53 50 47 48 52 59 67 67 60 58 60 61 64 64 62 60 55 56 66 72 72 74 73 70 66 63 62 61 59
57 58 59 61 60 58 60 64 65 66 69 68 61 55 52 50 49 50 58 73 77 68 63 65 67 68 65 62 60 56 57 64 70 70 68 67 63 58 55 56 59 58
55 56 56 56 57 57 60 66 68 69 74 73 67 62 59 56 54 50 51 62 72 72 71 74 76 72 67 64 64 64 61 59 60 61 59 58 57 52 48 48 49 50
54 54 52 53 57 61 64 69 70 70 73 72 70 69 68 64 61 58 56 59 64 71 76 80 79 73 69 69 68 65 61 54 52 53 51 50 49 45 43 43 42 43
54 53 52 52 56 60 62 65 66 68 69 68 69 70 72 72 71 68 68 67 68 74 80 80 77 73 69 66 63 59 53 45 44 48 47 44 39 35 34 35 34 34
51 51 53 53 53 54 56 57 59 60 62 63 63 65 68 74 76 74 73 72 72 76 75 69 65 62 57 52 50 47 42 38 41 47 48 43 35 31 30 30 29 31
50 51 52 53 52 52 55 58 59 60 59 58 58 61 65 70 73 73 72 71 71 71 65 56 52 51 48 45 44 40 38 42 47 49 49 48 43 39 37 32 31 37
53 51 51 50 51 53 55 58 59 59 59 58 58 62 66 68 68 69 66 63 61 60 55 48 48 50 49 46 45 42 40 47 54 54 54 56 56 53 47 38 34 39
56 54 53 53 53 56 58 59 58 57 56 56 56 57 58 57 55 54 52 51 51 50 46 41 42 45 45 43 43 41 40 45 55 59 61 61 61 59 56 49 43 41
65 62 62 62 62 63 64 65 65 63 59 56 55 55 55 54 51 50 50 50 50 46 43 42 41 41 42 41 42 43 42 46 55 64 64 62 61 60 59 56 53 50
69 65 64 66 69 71 70 70 71 70 68 65 63 63 63 62 61 60 59 59 57 52 50 51 49 46 46 48 48 48 47 47 56 65 65 63 62 61 59 58 55 54